Home   Weather   Dawson Creek   Past weeks

Flag for Canada Past Weather in Dawson Creek, British Columbia, Canada — Yesterday and Last 2 Weeks

Now
48 °F

Passing clouds.


Feels Like: 41 °F
Forecast: 39 / 49 °F
Wind: 20 mph from Southwest

Location: Dawson Creek Airport

Current Time: Oct 23, 2017 at 12:05:22 pm

Latest Report: Oct 23, 2017 at 11:00 am


Visibility: 9 mi

Pressure: 30.30 "Hg (27.94 "Hg at 668m altitude)

Humidity: 50%

Dew Point: 30 °F

Location of Dawson CreekLocation

Past Weather in Dawson Creek — Graph

°F

Dawson Creek Temperature Yesterday

Maximum temperature yesterday: 46 °F (at 1:00 pm)
Minimum temperature yesterday: 28 °F (at 8:00 am)
Average temperature yesterday: 38 °F

High & Low Weather Summary for the Past Weeks

 TemperatureHumidityPressure
High57 °F (Oct 15, 12:14 pm)100% (Oct 16, 6:00 pm)30.31 "Hg (Oct 16, 6:00 pm)
Low14 °F (Oct 12, 5:00 am)32% (Oct 9, 3:00 pm)29.23 "Hg (Oct 18, 11:00 pm)
Average39 °F70%29.77 "Hg
* Reported Oct 8 10:00 am — Oct 23 10:35 am, Dawson Creek. Weather by CustomWeather, © 2017

Note: Actual official high and low records may vary slightly from our data, if they occured in-between our weather recording intervals... More about our weather records

Advertising

Dawson Creek Weather History for the Previous 24 Hours

Scroll right to see more
 ConditionsComfort  
Time TempWeatherWind HumidityBarometerVisibility
10:35 am
Mon, Oct 23
46 °FPartly sunny.14 mph53%30.31 "Hg9 mi
10:00 am45 °FPartly sunny.2 mph57%30.31 "Hg9 mi
9:00 am45 °FOvercast.7 mph57%30.29 "Hg9 mi
8:00 am43 °FPassing clouds.14 mph61%30.27 "Hg9 mi
7:00 am43 °FPassing clouds.16 mph57%30.24 "Hg9 mi
6:00 am43 °FClear.21 mph53%30.21 "Hg9 mi
5:37 am43 °FClear.28 mph53%30.19 "Hg9 mi
5:00 am43 °FClear.16 mph53%30.18 "Hg9 mi
4:00 am43 °FClear.24 mph57%30.12 "Hg9 mi
3:54 am43 °FClear.30 mph57%30.12 "Hg9 mi
3:00 am43 °FClear.16 mph61%30.13 "Hg9 mi
2:00 am43 °FClear.16 mph61%30.09 "Hg9 mi
1:00 am43 °FClear.14 mph61%30.05 "Hg9 mi
12:00 am43 °FPassing clouds.12 mph61%30.01 "Hg9 mi
11:00 pm
Sun, Oct 22
43 °FClear.16 mph66%29.96 "Hg9 mi
10:00 pm43 °FClear.10 mph66%29.93 "Hg9 mi
9:00 pm43 °FClear.16 mph66%29.90 "Hg9 mi
8:00 pm45 °FClear.16 mph61%29.86 "Hg9 mi
7:00 pm45 °FPassing clouds.14 mph57%29.83 "Hg9 mi
6:00 pm45 °FSunny.12 mph61%29.80 "Hg9 mi
5:00 pm45 °FScattered clouds.8 mph66%29.77 "Hg9 mi
4:00 pm46 °FScattered clouds.10 mph62%29.74 "Hg9 mi
3:00 pm46 °FBroken clouds.14 mph62%29.69 "Hg9 mi
2:00 pm46 °FPartly sunny.17 mph66%29.65 "Hg9 mi
1:00 pm46 °FMore clouds than sun.8 mph66%29.60 "Hg9 mi
12:00 pm45 °FPartly sunny.6 mph71%29.56 "Hg9 mi
Weather by CustomWeather, © 2017

See weather overview